TimeCDT,TemperatureF,Dew PointF,Humidity,Sea Level PressureIn,VisibilityMPH,Wind Direction,Wind SpeedMPH,Gust SpeedMPH,PrecipitationIn,Events,Conditions,WindDirDegrees,DateUTC
12:15 AM,55.9,55.6,99,30.09,-9999.0,North,5.8,-,N/A,,Unknown,350,2012-10-08 05:15:00
12:35 AM,55.8,55.6,99,30.09,-9999.0,North,4.6,-,N/A,,Unknown,360,2012-10-08 05:35:00
12:55 AM,55.8,55.6,99,30.09,-9999.0,North,4.6,-,N/A,,Unknown,10,2012-10-08 05:55:00
1:15 AM,55.4,55.4,100,30.09,-9999.0,NNW,4.6,-,N/A,,Unknown,340,2012-10-08 06:15:00
1:35 AM,54.9,54.9,100,30.09,-9999.0,NNW,4.6,-,N/A,,Unknown,340,2012-10-08 06:35:00
1:55 AM,55.0,55.0,100,30.09,-9999.0,North,3.5,-,N/A,,Unknown,350,2012-10-08 06:55:00
2:15 AM,55.4,55.4,100,30.09,-9999.0,North,4.6,-,N/A,,Unknown,350,2012-10-08 07:15:00
2:35 AM,55.4,55.4,100,30.09,-9999.0,North,4.6,-,N/A,,Unknown,350,2012-10-08 07:35:00
2:55 AM,55.8,55.8,100,30.08,-9999.0,North,3.5,-,N/A,,Unknown,10,2012-10-08 07:55:00
3:15 AM,55.4,55.4,100,30.07,-9999.0,North,3.5,-,N/A,,Unknown,360,2012-10-08 08:15:00
3:35 AM,54.9,54.9,100,30.07,-9999.0,NNW,4.6,-,N/A,,Unknown,340,2012-10-08 08:35:00
3:55 AM,54.9,54.9,100,30.07,-9999.0,North,3.5,-,N/A,,Unknown,350,2012-10-08 08:55:00
4:15 AM,54.7,54.7,100,30.07,-9999.0,North,4.6,-,N/A,,Unknown,350,2012-10-08 09:15:00
4:35 AM,54.5,54.5,100,30.07,-9999.0,NNW,4.6,-,N/A,,Unknown,340,2012-10-08 09:35:00
4:55 AM,54.5,54.5,100,30.07,-9999.0,Calm,Calm,-,N/A,,Unknown,0,2012-10-08 09:55:00
5:15 AM,54.3,54.3,100,30.08,-9999.0,NW,3.5,-,N/A,,Unknown,320,2012-10-08 10:15:00
5:35 AM,54.1,54.1,100,30.09,-9999.0,NW,4.6,-,N/A,,Unknown,320,2012-10-08 10:35:00
5:50 AM,53.6,53.6,100,30.10,7.0,NNW,4.6,-,N/A,,Clear,330,2012-10-08 10:50:00
5:55 AM,54.1,54.1,100,30.09,-9999.0,NNW,4.6,-,N/A,,Unknown,340,2012-10-08 10:55:00
8:50 AM,57.2,53.6,88,30.16,7.0,North,11.5,-,N/A,,Partly Cloudy,360,2012-10-08 13:50:00
9:50 AM,60.8,51.8,72,30.17,7.0,North,11.5,-,N/A,,Partly Cloudy,360,2012-10-08 14:50:00
10:50 AM,64.4,51.8,64,30.15,7.0,NE,11.5,-,N/A,,Clear,40,2012-10-08 15:50:00
12:50 PM,69.8,55.4,60,30.12,7.0,North,13.8,-,N/A,,Clear,10,2012-10-08 17:50:00
1:51 PM,73.4,57.2,57,30.10,7.0,NNE,9.2,-,N/A,,Clear,30,2012-10-08 18:51:00
2:48 PM,73.4,57.2,57,30.08,7.0,NNW,9.2,-,N/A,,Clear,330,2012-10-08 19:48:00
3:52 PM,73.4,57.2,57,30.08,7.0,North,9.2,-,N/A,,Clear,360,2012-10-08 20:52:00
5:55 PM,69.8,57.2,64,30.07,7.0,North,9.2,-,N/A,,Clear,360,2012-10-08 22:55:00
6:48 PM,66.2,57.2,73,30.07,7.0,North,5.8,-,N/A,,Clear,350,2012-10-08 23:48:00
7:15 PM,64.4,58.1,80,30.07,-9999.0,North,4.6,-,N/A,,Clear,10,2012-10-09 00:15:00
7:35 PM,62.6,58.3,86,30.07,-9999.0,North,4.6,-,N/A,,Clear,360,2012-10-09 00:35:00
7:55 PM,62.6,57.7,84,30.08,-9999.0,North,4.6,-,N/A,,Clear,10,2012-10-09 00:55:00
8:15 PM,62.2,57.9,86,30.09,-9999.0,North,4.6,-,N/A,,Unknown,360,2012-10-09 01:15:00
8:35 PM,61.3,57.9,89,30.10,-9999.0,North,3.5,-,N/A,,Unknown,10,2012-10-09 01:35:00
8:55 PM,59.9,58.1,94,30.10,-9999.0,North,3.5,-,N/A,,Unknown,10,2012-10-09 01:55:00
9:15 PM,59.7,58.1,94,30.10,-9999.0,North,4.6,-,N/A,,Unknown,350,2012-10-09 02:15:00
9:35 PM,60.3,57.4,90,30.11,-9999.0,North,5.8,-,N/A,,Unknown,360,2012-10-09 02:35:00
9:55 PM,59.2,57.2,93,30.12,-9999.0,North,4.6,-,N/A,,Unknown,360,2012-10-09 02:55:00
10:15 PM,58.3,56.8,95,30.12,-9999.0,North,4.6,-,N/A,,Unknown,350,2012-10-09 03:15:00
10:35 PM,58.1,56.7,95,30.12,-9999.0,North,3.5,-,N/A,,Unknown,350,2012-10-09 03:35:00
10:55 PM,57.9,56.5,95,30.12,-9999.0,North,4.6,-,N/A,,Unknown,350,2012-10-09 03:55:00
11:15 PM,57.4,56.3,96,30.12,-9999.0,North,5.8,-,N/A,,Unknown,350,2012-10-09 04:15:00
11:35 PM,57.6,55.9,94,30.11,-9999.0,North,5.8,-,N/A,,Unknown,350,2012-10-09 04:35:00
11:55 PM,57.2,55.9,96,30.11,-9999.0,North,5.8,-,N/A,,Unknown,350,2012-10-09 04:55:00